Location: Eyeline Observatory
(43.2182°N, 78.8632°W)
Time: 18:14:36
(UTC-05:00)

Vanguard 3 - Visible Passes

Search period start: 17 December 2017 00:00
Search period end: 27 December 2017 00:00
Orbit: 509 x 3263 km, 33.3° (Epoch: 16 December)

Date Brightness Start Highest point End Pass type
(mag) Time Alt. Az. Time Alt. Az. Time Alt. Az.
22 Dec 11.3 07:10:09 10° S 07:16:11 15° SSE 07:20:56 10° SE visible
23 Dec 11.6 06:00:18 10° SSE 06:01:38 10° SSE 06:02:55 10° SE visible
24 Dec 11.1 06:51:22 10° SSW 07:00:18 20° SSE 07:06:47 10° ESE visible
25 Dec 11.4 05:38:27 10° S 05:45:36 15° SSE 05:51:25 10° ESE visible
26 Dec 10.9 06:33:00 10° SSW 06:44:18 25° SSE 06:52:07 10° ESE visible
